BEIJING 1               
1 28890U 05043A   19257.80161203 -.00000026  00000-0  38441-5 0  9998
2 28890  97.9926  30.3037 0016477  91.9523 268.3578 14.61266222740115
TOPSAT                  
1 28891U 05043B   19257.93742165 -.00000231  00000-0 -37414-4 0  9992
2 28891  98.0006  30.7520 0018636  97.6122 262.7207 14.61387589740077
UWE-1                   
1 28892U 05043C   19257.63084874  .00000070  00000-0  22307-4 0  9990
2 28892  97.9788  36.5117 0017604  76.1593 284.1567 14.63631156740191
SINAH 1                 
1 28893U 05043D   19257.88517240 -.00000019  00000-0  52683-5 0  9991
2 28893  97.9864  32.1568 0016627  92.3642 267.9463 14.61510069739928
SSETI EXPRESS (XO-53)   
1 28894U 05043E   19257.88503068  .00000019  00000-0  13013-4 0  9997
2 28894  97.9956  31.9269 0018439  97.6246 262.7051 14.61592350739599
CUBESAT XI-V            
1 28895U 05043F   19257.90042106  .00000088  00000-0  25727-4 0  9993
2 28895  97.9720  37.6702 0018099  74.9224 285.3980 14.63689905740151
NCUBE-2                 
1 28897U 05043H   19257.34042116  .00000106  00000-0  28921-4 0  9994
2 28897  97.9676  37.7396 0017336  71.1111 343.6252 14.64149112732467
MOZHAYETS 5 & RUBIN-5   
1 28898U 05043G   19257.90067878  .00000053  00000-0  20258-4 0  9995
2 28898  98.0424  27.7648 0020755 133.4385 226.8547 14.60375687362837